Weather History for PARC - December, 2013

Change the Weather History Date:

Friday, December 20, 2013

  Actual Average Record
Temperature  
Mean Temperature -33 °F -  
Max Temperature -25 °F -2 °F 21 °F (2006)
Min Temperature -41 °F -24 °F -47 °F (2001)
Degree Days  
Heating Degree Days 98    
Moisture  
Dew Point -    
Average Humidity    
Maximum Humidity    
Minimum Humidity    
Precipitation  
Precipitation 0.00 in - - ()
Sea Level Pressure  
Sea Level Pressure 29.80 in    
Wind  
Wind Speed 1 mph (NE)    
Max Wind Speed 5 mph    
Max Gust Speed -    
Visibility 7 miles    
Events      
Averages and records for this station are not official NWS values.
T = Trace of Precipitation, MM = Missing Value Source: NWS Daily Summary

Daily Weather History Graph

Daily Weather History Graph

Search for Another Location

Airport or City:

Trip Planner

Search our weather history database for the weather conditions in past years. The results will help you decide how hot, cold, wet, or windy it might be!

Date:

Astronomy

Dec. 20, 2013 Rise Set
Actual Time 12:07 PM AKST 1:12 PM AKST
Civil Twilight 10:02 AM AKST 3:17 PM AKST
Nautical Twilight 8:32 AM AKST 4:47 PM AKST
Astronomical Twilight 7:20 AM AKST 5:59 PM AKST
Moon 7:13 PM AKST (12/20) 11:42 AM AKST (12/20)
Length of Visible Light 5h 14m
Length of Day
1h 04m
Waning Gibbous, 89% of the Moon is Illuminated
Dec 20
Waning Gibbous
Dec 25
Last Quarter
Jan 1
New
Jan 7
First Quarter
Jan 15
Full

Hourly Weather History & Observations

Time (AKST) Temp. Windchill Dew Point Humidity Pressure Visibility Wind Dir Wind Speed Gust Speed Precip Events Conditions
12:16 AM -25.6 °F - - N/A% 29.81 in 5.0 mi Calm Calm - N/A   Clear
12:36 AM -27.4 °F - - N/A% 29.81 in 7.0 mi Calm Calm - N/A   Clear
12:56 AM -29.2 °F - - N/A% 29.81 in 9.0 mi Calm Calm - N/A   Clear
1:16 AM -25.6 °F - - N/A% 29.81 in 10.0 mi Calm Calm - N/A   Clear
1:36 AM -25.6 °F - - N/A% 29.81 in 10.0 mi Calm Calm - N/A   Clear
1:56 AM -25.6 °F -37.1 °F - N/A% 29.81 in 8.0 mi East 3.5 mph - N/A   Clear
2:16 AM -25.6 °F -37.1 °F - N/A% 29.80 in 9.0 mi NE 3.5 mph - N/A   Clear
2:36 AM -32.8 °F -45.3 °F - N/A% 29.80 in 8.0 mi East 3.5 mph - N/A   Clear
2:56 AM -25.6 °F -37.1 °F - N/A% 29.80 in 10.0 mi NE 3.5 mph - N/A   Clear
3:16 AM -27.4 °F - - N/A% 29.80 in 10.0 mi Calm Calm - N/A   Clear
3:36 AM -27.4 °F - - N/A% 29.79 in 10.0 mi Calm Calm - N/A   Clear
3:56 AM -32.8 °F -45.3 °F - N/A% 29.79 in 10.0 mi North 3.5 mph - N/A   Clear
4:16 AM -34.6 °F - - N/A% 29.79 in 10.0 mi Calm Calm - N/A   Clear
4:36 AM -32.8 °F -48.2 °F - N/A% 29.79 in 10.0 mi ENE 4.6 mph - N/A   Clear
4:56 AM -27.4 °F -39.2 °F - N/A% 29.79 in 10.0 mi NNE 3.5 mph - N/A   Clear
5:16 AM -29.2 °F -41.2 °F - N/A% 29.79 in 10.0 mi NE 3.5 mph - N/A   Clear
5:36 AM -32.8 °F - - N/A% 29.80 in 10.0 mi Calm Calm - N/A   Clear
5:56 AM -27.4 °F - - N/A% 29.80 in 10.0 mi Calm Calm - N/A   Clear
6:16 AM -32.8 °F - - N/A% 29.80 in 10.0 mi Calm Calm - N/A   Clear
6:36 AM -36.4 °F -49.4 °F - N/A% 29.79 in 10.0 mi North 3.5 mph - N/A   Clear
6:56 AM -36.4 °F - - N/A% 29.79 in 10.0 mi Calm Calm - N/A   Clear
7:16 AM -34.6 °F - - N/A% 29.80 in 10.0 mi Calm Calm - N/A   Clear
7:36 AM -34.6 °F - - N/A% 29.80 in 10.0 mi Calm Calm - N/A   Clear
7:56 AM -36.4 °F - - N/A% 29.80 in 10.0 mi Calm Calm - N/A   Clear
8:16 AM -36.4 °F - - N/A% 29.80 in 7.0 mi Calm Calm - N/A   Clear
8:36 AM -34.6 °F - - N/A% 29.79 in 10.0 mi Calm Calm - N/A   Clear
8:56 AM -34.6 °F -47.4 °F - N/A% 29.80 in 10.0 mi NNE 3.5 mph - N/A   Clear
9:16 AM -36.4 °F - - N/A% 29.80 in 10.0 mi Calm Calm - N/A   Clear
9:36 AM -38.2 °F - - N/A% 29.80 in 10.0 mi Calm Calm - N/A   Clear
9:56 AM -40.0 °F - - N/A% 29.80 in 10.0 mi Calm Calm - N/A   Clear
10:16 AM -38.2 °F - - N/A% 29.80 in 10.0 mi Calm Calm - N/A   Clear
10:36 AM -38.2 °F - - N/A% 29.81 in 5.0 mi Calm Calm - N/A   Clear
10:56 AM -38.2 °F - - N/A% 29.81 in 3.0 mi Calm Calm - N/A   Clear
11:16 AM -36.4 °F - - N/A% 29.81 in 0.8 mi Calm Calm - N/A   Unknown
11:36 AM -38.2 °F - - N/A% 29.81 in 0.8 mi Calm Calm - N/A   Unknown
11:56 AM -38.2 °F - - N/A% 29.82 in 1.0 mi Calm Calm - N/A   Clear
12:16 PM -36.4 °F - - N/A% 29.82 in 4.0 mi Calm Calm - N/A   Clear
12:36 PM -40.0 °F - - N/A% 29.82 in 1.2 mi Calm Calm - N/A   Clear
12:56 PM -40.0 °F - - N/A% 29.82 in 7.0 mi Calm Calm - N/A   Clear
1:16 PM -36.4 °F - - N/A% 29.82 in 5.0 mi Calm Calm - N/A   Clear
1:36 PM -36.4 °F - - N/A% 29.81 in 7.0 mi Calm Calm - N/A   Clear
1:56 PM -38.2 °F - - N/A% 29.81 in 1.5 mi Calm Calm - N/A   Clear
2:16 PM -38.2 °F - - N/A% 29.82 in 6.0 mi Calm Calm - N/A   Clear
2:36 PM -38.2 °F - - N/A% 29.82 in 8.0 mi Calm Calm - N/A   Clear
2:56 PM -38.2 °F - - N/A% 29.82 in 7.0 mi Calm Calm - N/A   Clear
3:16 PM -38.2 °F - - N/A% 29.81 in 2.0 mi Calm Calm - N/A   Clear
3:36 PM -38.2 °F - - N/A% 29.81 in 2.5 mi Calm Calm - N/A   Clear
3:56 PM -36.4 °F - - N/A% 29.81 in 9.0 mi Calm Calm - N/A   Clear
4:16 PM -38.2 °F - - N/A% 29.82 in 3.0 mi Calm Calm - N/A   Clear
4:36 PM -38.2 °F - - N/A% 29.81 in 9.0 mi Calm Calm - N/A   Clear
4:56 PM -38.2 °F - - N/A% 29.82 in 7.0 mi Calm Calm - N/A   Clear
5:16 PM -36.4 °F - - N/A% 29.81 in 8.0 mi Calm Calm - N/A   Clear
5:36 PM -36.4 °F - - N/A% 29.81 in 7.0 mi Calm Calm - N/A   Clear
5:56 PM -38.2 °F - - N/A% 29.81 in 6.0 mi Calm Calm - N/A   Clear
6:16 PM -38.2 °F - - N/A% 29.81 in 10.0 mi Calm Calm - N/A   Clear
6:36 PM -38.2 °F - - N/A% 29.81 in 3.0 mi Calm Calm - N/A   Clear
6:56 PM -38.2 °F - - N/A% 29.81 in 5.0 mi Calm Calm - N/A   Clear
7:16 PM -40.0 °F - - N/A% 29.81 in 7.0 mi Calm Calm - N/A   Clear
7:36 PM -41.8 °F - - N/A% 29.81 in 3.0 mi Calm Calm - N/A   Clear
7:56 PM -36.4 °F - - N/A% 29.81 in 10.0 mi Calm Calm - N/A   Clear
8:16 PM -40.0 °F - - N/A% 29.80 in 3.0 mi Calm Calm - N/A   Clear
8:36 PM -40.0 °F - - N/A% 29.80 in 1.0 mi Calm Calm - N/A   Clear
8:56 PM -36.4 °F - - N/A% 29.80 in 5.0 mi Calm Calm - N/A   Clear
9:16 PM -38.2 °F - - N/A% 29.80 in 10.0 mi Calm Calm - N/A   Clear
9:36 PM -40.0 °F - - N/A% 29.79 in 2.5 mi Calm Calm - N/A   Clear
9:56 PM -38.2 °F - - N/A% 29.79 in 1.8 mi Calm Calm - N/A   Clear
10:16 PM -40.0 °F - - N/A% 29.79 in 3.0 mi Calm Calm - N/A   Clear
10:36 PM -40.0 °F - - N/A% 29.79 in 2.5 mi Calm Calm - N/A   Clear
10:56 PM -38.2 °F - - N/A% 29.79 in 10.0 mi Calm Calm - N/A   Clear
11:16 PM -38.2 °F - - N/A% 29.78 in 10.0 mi Calm Calm - N/A   Clear
11:36 PM -40.0 °F - - N/A% 29.79 in 1.5 mi Calm Calm - N/A   Clear
11:56 PM -40.0 °F - - N/A% 29.79 in 1.8 mi Calm Calm - N/A   Clear